Time,TemperatureF,DewpointF,PressureIn,WindDirection,WindDirectionDegrees,WindSpeedMPH,WindSpeedGustMPH,Humidity,HourlyPrecipIn,Conditions,Clouds,dailyrainin,SoftwareType,DateUTC
2013-10-05 00:01:00,59.2,41.5,30.28,NW,315,0.0,3.0,52,0.00,,,0.00,meteohub,2013-10-05 04:01:00,
2013-10-05 00:06:00,59.2,41.5,30.28,NW,315,0.0,3.0,52,0.00,,,0.00,meteohub,2013-10-05 04:06:00,
2013-10-05 00:11:00,59.2,41.5,30.28,NW,315,0.0,3.0,52,0.00,,,0.00,meteohub,2013-10-05 04:11:00,
2013-10-05 00:16:00,59.4,42.3,30.28,NW,315,0.0,0.0,53,0.00,,,0.00,meteohub,2013-10-05 04:16:00,
2013-10-05 00:21:00,59.5,42.4,30.28,NW,315,0.0,0.0,53,0.00,,,0.00,meteohub,2013-10-05 04:21:00,
2013-10-05 00:26:00,59.5,42.4,30.28,NW,315,0.0,0.0,53,0.00,,,0.00,meteohub,2013-10-05 04:26:00,
2013-10-05 00:31:00,59.7,42.6,30.28,NW,315,0.0,0.0,53,0.00,,,0.00,meteohub,2013-10-05 04:31:00,
2013-10-05 00:36:00,59.7,42.6,30.28,NW,315,0.0,0.0,53,0.00,,,0.00,meteohub,2013-10-05 04:36:00,
2013-10-05 00:41:00,59.7,42.6,30.28,NW,315,0.0,0.0,53,0.00,,,0.00,meteohub,2013-10-05 04:41:00,
2013-10-05 00:46:00,59.7,42.6,30.28,NW,315,0.0,0.0,53,0.00,,,0.00,meteohub,2013-10-05 04:46:00,
2013-10-05 00:51:00,59.7,42.6,30.28,NW,315,0.0,0.0,53,0.00,,,0.00,meteohub,2013-10-05 04:51:00,
2013-10-05 00:56:00,59.7,42.6,30.28,NW,315,0.0,0.0,53,0.00,,,0.00,meteohub,2013-10-05 04:56:00,
2013-10-05 01:01:00,59.7,42.6,30.28,NW,315,0.0,0.0,53,0.00,,,0.00,meteohub,2013-10-05 05:01:00,
2013-10-05 01:06:00,59.7,43.0,30.28,NW,315,0.0,0.0,54,0.00,,,0.00,meteohub,2013-10-05 05:06:00,
2013-10-05 01:11:00,59.7,43.0,30.28,NW,315,0.0,0.0,54,0.00,,,0.00,meteohub,2013-10-05 05:11:00,
2013-10-05 01:16:00,59.5,43.0,30.28,NW,315,0.0,0.0,54,0.00,,,0.00,meteohub,2013-10-05 05:16:00,
2013-10-05 01:21:00,59.4,42.8,30.28,NW,315,0.0,0.0,54,0.00,,,0.00,meteohub,2013-10-05 05:21:00,
2013-10-05 01:26:00,59.4,42.8,30.28,NW,315,0.0,0.0,54,0.00,,,0.00,meteohub,2013-10-05 05:26:00,
2013-10-05 01:31:00,59.2,42.6,30.25,NW,315,0.0,0.0,54,0.00,,,0.00,meteohub,2013-10-05 05:31:00,
2013-10-05 01:37:00,59.0,42.8,30.25,NW,315,0.0,0.0,55,0.00,,,0.00,meteohub,2013-10-05 05:37:00,
2013-10-05 01:42:00,59.0,42.8,30.25,NW,315,0.0,0.0,55,0.00,,,0.00,meteohub,2013-10-05 05:42:00,
2013-10-05 01:47:00,59.0,42.8,30.29,NW,315,0.0,0.0,55,0.00,,,0.00,meteohub,2013-10-05 05:47:00,
2013-10-05 01:52:00,58.8,43.2,30.29,NW,315,0.0,0.0,56,0.00,,,0.00,meteohub,2013-10-05 05:52:00,
2013-10-05 01:57:00,58.8,43.2,30.29,NW,315,0.0,0.0,56,0.00,,,0.00,meteohub,2013-10-05 05:57:00,
2013-10-05 02:02:00,58.8,43.7,30.29,NW,315,0.0,0.0,57,0.00,,,0.00,meteohub,2013-10-05 06:02:00,
2013-10-05 02:07:00,58.8,43.7,30.29,NW,315,0.0,0.0,57,0.00,,,0.00,meteohub,2013-10-05 06:07:00,
2013-10-05 02:12:00,59.0,43.9,30.29,NW,315,0.0,0.0,57,0.00,,,0.00,meteohub,2013-10-05 06:12:00,
2013-10-05 02:17:00,59.2,44.1,30.28,NW,315,0.0,0.0,57,0.00,,,0.00,meteohub,2013-10-05 06:17:00,
2013-10-05 02:22:00,59.2,44.1,30.28,NW,315,0.0,0.0,57,0.00,,,0.00,meteohub,2013-10-05 06:22:00,
2013-10-05 02:27:00,59.2,44.1,30.28,WNW,292,0.0,0.0,57,0.00,,,0.00,meteohub,2013-10-05 06:27:00,
2013-10-05 02:32:00,59.4,44.1,30.28,WNW,292,0.0,0.0,57,0.00,,,0.00,meteohub,2013-10-05 06:32:00,
2013-10-05 02:37:00,59.4,44.1,30.28,WNW,292,0.0,0.0,57,0.00,,,0.00,meteohub,2013-10-05 06:37:00,
2013-10-05 02:42:00,59.5,44.2,30.28,WSW,248,0.0,0.0,57,0.00,,,0.00,meteohub,2013-10-05 06:42:00,
2013-10-05 02:47:00,59.9,44.6,30.28,NW,315,0.0,0.0,57,0.00,,,0.00,meteohub,2013-10-05 06:47:00,
2013-10-05 02:52:00,59.9,44.2,30.28,NNW,338,0.0,0.0,56,0.00,,,0.00,meteohub,2013-10-05 06:52:00,
2013-10-05 02:57:00,59.7,44.1,30.28,NNW,338,3.0,0.0,56,0.00,,,0.00,meteohub,2013-10-05 06:57:00,
2013-10-05 03:02:00,59.5,43.3,30.25,NW,315,2.0,3.0,55,0.00,,,0.00,meteohub,2013-10-05 07:02:00,
2013-10-05 03:07:00,59.4,42.8,30.25,NW,315,0.0,3.0,54,0.00,,,0.00,meteohub,2013-10-05 07:07:00,
2013-10-05 03:12:00,59.4,43.2,30.25,NW,315,3.0,3.0,55,0.00,,,0.00,meteohub,2013-10-05 07:12:00,
2013-10-05 03:17:00,59.2,43.0,30.25,NW,315,2.0,3.0,55,0.00,,,0.00,meteohub,2013-10-05 07:17:00,
2013-10-05 03:22:00,59.0,42.8,30.25,NW,315,0.0,3.0,55,0.00,,,0.00,meteohub,2013-10-05 07:22:00,
2013-10-05 03:27:00,59.0,42.8,30.25,NW,315,0.0,3.0,55,0.00,,,0.00,meteohub,2013-10-05 07:27:00,
2013-10-05 03:32:00,58.8,43.2,30.25,NW,315,0.0,2.0,56,0.00,,,0.00,meteohub,2013-10-05 07:32:00,
2013-10-05 03:37:00,58.8,43.2,30.25,NW,315,0.0,2.0,56,0.00,,,0.00,meteohub,2013-10-05 07:37:00,
2013-10-05 03:42:00,58.8,43.7,30.25,NW,315,2.0,2.0,57,0.00,,,0.00,meteohub,2013-10-05 07:42:00,
2013-10-05 03:47:00,58.8,43.7,30.25,NW,315,0.0,3.0,57,0.00,,,0.00,meteohub,2013-10-05 07:47:00,
2013-10-05 03:52:00,58.8,43.7,30.25,WNW,292,0.0,3.0,57,0.00,,,0.00,meteohub,2013-10-05 07:52:00,
2013-10-05 03:57:00,58.8,43.7,30.25,NW,315,0.0,3.0,57,0.00,,,0.00,meteohub,2013-10-05 07:57:00,
2013-10-05 04:02:00,58.8,43.7,30.25,NNW,338,1.0,2.0,57,0.00,,,0.00,meteohub,2013-10-05 08:02:00,
2013-10-05 04:07:00,58.8,43.7,30.25,NW,315,3.0,3.0,57,0.00,,,0.00,meteohub,2013-10-05 08:07:00,
2013-10-05 04:12:00,58.6,43.5,30.25,NW,315,2.0,3.0,57,0.00,,,0.00,meteohub,2013-10-05 08:12:00,
2013-10-05 04:17:00,58.6,43.5,30.25,NW,315,0.0,3.0,57,0.00,,,0.00,meteohub,2013-10-05 08:17:00,
2013-10-05 04:22:00,58.5,43.3,30.26,NNW,338,3.0,3.0,57,0.00,,,0.00,meteohub,2013-10-05 08:22:00,
2013-10-05 04:27:00,58.3,43.2,30.26,NNW,338,3.0,4.0,57,0.00,,,0.00,meteohub,2013-10-05 08:27:00,
2013-10-05 04:32:00,57.9,42.8,30.26,NW,315,2.0,4.0,57,0.00,,,0.00,meteohub,2013-10-05 08:32:00,
2013-10-05 04:37:00,57.7,42.3,30.26,NW,315,2.0,4.0,56,0.00,,,0.00,meteohub,2013-10-05 08:37:00,
2013-10-05 04:42:00,57.6,42.1,30.26,WNW,292,2.0,4.0,56,0.00,,,0.00,meteohub,2013-10-05 08:42:00,
2013-10-05 04:47:00,57.6,42.4,30.26,WNW,292,2.0,4.0,57,0.00,,,0.00,meteohub,2013-10-05 08:47:00,
2013-10-05 04:52:00,57.6,43.0,30.26,NW,315,2.0,3.0,58,0.00,,,0.00,meteohub,2013-10-05 08:52:00,
2013-10-05 04:57:00,57.7,43.5,30.26,NW,315,2.0,3.0,59,0.00,,,0.00,meteohub,2013-10-05 08:57:00,
2013-10-05 05:02:00,57.9,43.7,30.26,NW,315,2.0,3.0,59,0.00,,,0.00,meteohub,2013-10-05 09:02:00,
2013-10-05 05:07:00,57.7,43.5,30.26,NW,315,2.0,3.0,59,0.00,,,0.00,meteohub,2013-10-05 09:07:00,
2013-10-05 05:12:00,57.7,43.5,30.26,NW,315,2.0,3.0,59,-99.99,,,0.00,meteohub,2013-10-05 09:12:00,
2013-10-05 05:17:00,57.6,43.9,30.26,NW,315,2.0,3.0,60,-99.99,,,0.00,meteohub,2013-10-05 09:17:00,
2013-10-05 05:22:00,57.6,43.9,30.26,NW,315,3.0,3.0,60,-99.99,,,0.00,meteohub,2013-10-05 09:22:00,
2013-10-05 05:27:00,57.4,43.7,30.27,NW,315,2.0,3.0,60,-99.99,,,0.00,meteohub,2013-10-05 09:27:00,
2013-10-05 05:32:00,57.4,43.7,30.27,NW,315,2.0,3.0,60,0.00,,,0.00,meteohub,2013-10-05 09:32:00,
2013-10-05 05:37:00,57.2,43.5,30.27,NW,315,2.0,3.0,60,0.00,,,0.00,meteohub,2013-10-05 09:37:00,
2013-10-05 05:42:00,57.2,43.9,30.27,NW,315,3.0,3.0,61,0.00,,,0.00,meteohub,2013-10-05 09:42:00,
2013-10-05 05:47:00,57.2,43.9,30.30,NW,315,3.0,3.0,61,0.00,,,0.00,meteohub,2013-10-05 09:47:00,
2013-10-05 05:52:00,57.0,44.1,30.30,NNW,338,3.0,3.0,62,0.00,,,0.00,meteohub,2013-10-05 09:52:00,
2013-10-05 05:57:00,57.0,44.1,30.30,NW,315,2.0,3.0,62,0.00,,,0.00,meteohub,2013-10-05 09:57:00,
2013-10-05 06:02:00,56.8,44.1,30.30,NW,315,2.0,3.0,62,0.00,,,0.00,meteohub,2013-10-05 10:02:00,
2013-10-05 06:07:00,56.8,44.4,30.30,NW,315,2.0,3.0,63,0.00,,,0.00,meteohub,2013-10-05 10:07:00,
2013-10-05 06:12:00,57.0,45.0,30.30,NW,315,3.0,3.0,64,0.00,,,0.00,meteohub,2013-10-05 10:12:00,
2013-10-05 06:17:00,57.2,45.1,30.27,NW,315,2.0,3.0,64,0.00,,,0.00,meteohub,2013-10-05 10:17:00,
2013-10-05 06:22:00,57.4,45.7,30.27,NW,315,2.0,3.0,65,0.00,,,0.00,meteohub,2013-10-05 10:22:00,
2013-10-05 06:27:00,57.6,45.9,30.26,NW,315,2.0,4.0,65,0.00,,,0.00,meteohub,2013-10-05 10:27:00,
2013-10-05 06:32:00,57.7,46.4,30.30,WNW,292,2.0,4.0,66,0.00,,,0.00,meteohub,2013-10-05 10:32:00,
2013-10-05 06:37:00,57.9,46.6,30.30,NW,315,2.0,4.0,66,0.00,,,0.00,meteohub,2013-10-05 10:37:00,
2013-10-05 06:42:00,58.1,46.8,30.29,NW,315,2.0,3.0,66,0.00,,,0.00,meteohub,2013-10-05 10:42:00,
2013-10-05 06:47:00,58.1,47.3,30.29,NW,315,2.0,3.0,67,0.00,,,0.00,meteohub,2013-10-05 10:47:00,
2013-10-05 06:52:00,58.3,47.3,30.29,WNW,292,2.0,4.0,67,0.00,,,0.00,meteohub,2013-10-05 10:52:00,
2013-10-05 06:57:00,58.5,47.5,30.29,WNW,292,2.0,4.0,67,-99.99,,,0.00,meteohub,2013-10-05 10:57:00,
2013-10-05 07:02:00,58.5,47.5,30.29,NW,315,2.0,4.0,67,-99.99,,,0.00,meteohub,2013-10-05 11:02:00,
2013-10-05 07:07:00,58.5,47.1,30.29,NW,315,2.0,3.0,66,-99.99,,,0.00,meteohub,2013-10-05 11:07:00,
2013-10-05 07:12:00,58.5,47.1,30.29,NW,315,2.0,3.0,66,-99.99,,,0.00,meteohub,2013-10-05 11:12:00,
2013-10-05 07:17:00,58.5,47.1,30.29,NW,315,1.0,3.0,66,-99.99,,,0.00,meteohub,2013-10-05 11:17:00,
2013-10-05 07:22:00,58.5,46.8,30.29,NW,315,2.0,3.0,65,-99.99,,,0.00,meteohub,2013-10-05 11:22:00,
2013-10-05 07:27:00,58.5,46.8,30.29,NW,315,2.0,3.0,65,-99.99,,,0.00,meteohub,2013-10-05 11:27:00,
2013-10-05 07:32:00,58.5,46.8,30.29,WNW,292,2.0,3.0,65,-99.99,,,0.00,meteohub,2013-10-05 11:32:00,
2013-10-05 07:37:00,58.3,46.2,30.29,NW,315,2.0,3.0,64,-99.99,,,0.00,meteohub,2013-10-05 11:37:00,
2013-10-05 07:42:00,58.3,46.2,30.29,NW,315,2.0,3.0,64,-99.99,,,0.00,meteohub,2013-10-05 11:42:00,
2013-10-05 07:47:00,58.5,46.8,30.29,NNW,338,2.0,3.0,65,-99.99,,,0.00,meteohub,2013-10-05 11:47:00,
2013-10-05 07:52:00,58.6,46.9,30.29,WNW,292,3.0,3.0,65,-99.99,,,0.00,meteohub,2013-10-05 11:52:00,
2013-10-05 07:57:00,58.8,47.1,30.29,NW,315,2.0,3.0,65,-99.99,,,0.00,meteohub,2013-10-05 11:57:00,
2013-10-05 08:02:00,59.0,47.3,30.29,NW,315,2.0,3.0,65,-99.99,,,0.00,meteohub,2013-10-05 12:02:00,
2013-10-05 08:07:00,59.2,47.5,30.28,NNW,338,2.0,3.0,65,-99.99,,,0.00,meteohub,2013-10-05 12:07:00,
2013-10-05 08:12:00,59.4,48.0,30.28,NW,315,2.0,3.0,66,-99.99,,,0.00,meteohub,2013-10-05 12:12:00,
2013-10-05 08:17:00,59.7,48.4,30.28,NW,315,2.0,3.0,66,-99.99,,,0.00,meteohub,2013-10-05 12:17:00,
2013-10-05 08:22:00,59.9,48.2,30.28,NNW,338,2.0,3.0,65,-99.99,,,0.00,meteohub,2013-10-05 12:22:00,
2013-10-05 08:27:00,60.1,48.4,30.28,NW,315,3.0,3.0,65,-99.99,,,0.00,meteohub,2013-10-05 12:27:00,
2013-10-05 08:32:00,60.1,48.4,30.28,NW,315,2.0,3.0,65,-99.99,,,0.00,meteohub,2013-10-05 12:32:00,
2013-10-05 08:37:00,60.4,48.6,30.27,WNW,292,2.0,3.0,65,-99.99,,,0.00,meteohub,2013-10-05 12:37:00,
2013-10-05 08:42:00,60.6,48.4,30.27,NW,315,2.0,3.0,64,-99.99,,,0.00,meteohub,2013-10-05 12:42:00,
2013-10-05 08:47:00,60.6,48.4,30.27,NW,315,3.0,3.0,64,-99.99,,,0.00,meteohub,2013-10-05 12:47:00,
2013-10-05 08:52:00,61.0,48.7,30.27,NW,315,2.0,3.0,64,-99.99,,,0.00,meteohub,2013-10-05 12:52:00,
2013-10-05 08:57:00,61.2,48.9,30.27,NW,315,2.0,3.0,64,-99.99,,,0.00,meteohub,2013-10-05 12:57:00,
2013-10-05 09:02:00,61.3,49.1,30.27,NW,315,3.0,3.0,64,-99.99,,,0.00,meteohub,2013-10-05 13:02:00,
2013-10-05 09:07:00,61.3,49.1,30.27,WNW,292,2.0,3.0,64,-99.99,,,0.00,meteohub,2013-10-05 13:07:00,
2013-10-05 09:12:00,61.5,49.3,30.27,NW,315,1.0,3.0,64,-99.99,,,0.00,meteohub,2013-10-05 13:12:00,
2013-10-05 09:17:00,61.7,49.5,30.27,WNW,292,1.0,3.0,64,-99.99,,,0.00,meteohub,2013-10-05 13:17:00,
2013-10-05 09:22:00,61.9,49.6,30.26,NW,315,0.0,3.0,64,-99.99,,,0.00,meteohub,2013-10-05 13:22:00,
2013-10-05 09:27:00,62.2,50.0,30.26,NW,315,2.0,2.0,64,-99.99,,,0.00,meteohub,2013-10-05 13:27:00,
2013-10-05 09:32:00,62.4,50.2,30.29,WNW,292,2.0,3.0,64,-99.99,,,0.00,meteohub,2013-10-05 13:32:00,
2013-10-05 09:37:00,62.8,50.0,30.29,NW,315,2.0,3.0,63,-99.99,,,0.00,meteohub,2013-10-05 13:37:00,
2013-10-05 09:42:00,63.1,50.0,30.29,NW,315,2.0,3.0,62,-99.99,,,0.00,meteohub,2013-10-05 13:42:00,
2013-10-05 09:47:00,63.5,49.8,30.29,NW,315,2.0,3.0,61,-99.99,,,0.00,meteohub,2013-10-05 13:47:00,
2013-10-05 09:52:00,63.7,49.6,30.28,NW,315,1.0,3.0,60,-99.99,,,0.00,meteohub,2013-10-05 13:52:00,
2013-10-05 09:58:00,63.9,49.3,30.28,NW,315,2.0,3.0,59,-99.99,,,0.00,meteohub,2013-10-05 13:58:00,
2013-10-05 10:03:00,64.2,49.6,30.28,NW,315,2.0,3.0,59,-99.99,,,0.00,meteohub,2013-10-05 14:03:00,
2013-10-05 10:08:00,64.6,49.1,30.28,NW,315,3.0,3.0,57,-99.99,,,0.00,meteohub,2013-10-05 14:08:00,
2013-10-05 10:13:00,65.1,49.1,30.27,NW,315,2.0,3.0,56,-99.99,,,0.00,meteohub,2013-10-05 14:13:00,
2013-10-05 10:18:00,65.5,49.5,30.24,NW,315,1.0,3.0,56,-99.99,,,0.00,meteohub,2013-10-05 14:18:00,
2013-10-05 10:23:00,65.7,48.0,30.24,NNW,338,2.0,3.0,53,-99.99,,,0.00,meteohub,2013-10-05 14:23:00,
2013-10-05 10:28:00,66.2,47.1,30.23,NNW,338,0.0,3.0,50,-99.99,,,0.00,meteohub,2013-10-05 14:28:00,
2013-10-05 10:33:00,66.7,47.5,30.26,NNW,338,0.0,3.0,50,-99.99,,,0.00,meteohub,2013-10-05 14:33:00,
2013-10-05 10:38:00,67.1,47.3,30.26,WNW,292,0.0,3.0,49,-99.99,,,0.00,meteohub,2013-10-05 14:38:00,
2013-10-05 10:43:00,67.3,46.4,30.26,NNW,338,3.0,3.0,47,-99.99,,,0.00,meteohub,2013-10-05 14:43:00,
2013-10-05 10:48:00,67.6,45.5,30.25,North,0,0.0,3.0,45,-99.99,,,0.00,meteohub,2013-10-05 14:48:00,
2013-10-05 10:53:00,67.6,45.0,30.25,North,0,2.0,3.0,44,0.00,,,0.00,meteohub,2013-10-05 14:53:00,
2013-10-05 10:58:00,68.0,44.8,30.25,WNW,292,3.0,3.0,43,0.00,,,0.00,meteohub,2013-10-05 14:58:00,
2013-10-05 11:03:00,68.2,44.8,30.25,WSW,248,3.0,3.0,43,0.00,,,0.00,meteohub,2013-10-05 15:03:00,
2013-10-05 11:08:00,68.5,44.6,30.25,NW,315,3.0,3.0,42,0.00,,,0.00,meteohub,2013-10-05 15:08:00,
2013-10-05 11:13:00,68.9,43.5,30.25,NNW,338,1.0,3.0,40,0.00,,,0.00,meteohub,2013-10-05 15:13:00,
2013-10-05 11:18:00,68.9,43.0,30.21,ESE,112,3.0,3.0,39,0.00,,,0.00,meteohub,2013-10-05 15:18:00,
2013-10-05 11:23:00,69.1,42.4,30.21,West,270,2.0,4.0,38,0.00,,,0.00,meteohub,2013-10-05 15:23:00,
2013-10-05 11:28:00,69.4,42.8,30.21,NW,315,3.0,4.0,38,0.00,,,0.00,meteohub,2013-10-05 15:28:00,
2013-10-05 11:33:00,69.6,41.5,30.24,SSE,158,4.0,4.0,36,0.00,,,0.00,meteohub,2013-10-05 15:33:00,
2013-10-05 11:38:00,70.0,41.9,30.24,West,270,2.0,6.0,36,0.00,,,0.00,meteohub,2013-10-05 15:38:00,
2013-10-05 11:43:00,70.3,41.4,30.23,South,180,4.0,6.0,35,0.00,,,0.00,meteohub,2013-10-05 15:43:00,
2013-10-05 11:49:00,70.7,41.0,30.20,NNE,22,1.0,6.0,34,0.00,,,0.00,meteohub,2013-10-05 15:49:00,
2013-10-05 11:54:00,71.1,41.4,30.19,SSE,158,0.0,6.0,34,0.00,,,0.00,meteohub,2013-10-05 15:54:00,
2013-10-05 11:59:00,72.0,41.4,30.19,SSE,158,5.0,6.0,33,0.00,,,0.00,meteohub,2013-10-05 15:59:00,
2013-10-05 12:04:00,72.7,41.2,30.22,SSE,158,8.0,8.0,32,0.00,,,0.00,meteohub,2013-10-05 16:04:00,
2013-10-05 12:09:00,73.0,41.5,30.21,SSE,158,6.0,9.0,32,0.00,,,0.00,meteohub,2013-10-05 16:09:00,
2013-10-05 12:14:00,72.7,41.2,30.22,SE,135,9.0,9.0,32,0.00,,,0.00,meteohub,2013-10-05 16:14:00,
2013-10-05 12:19:00,72.0,40.5,30.19,SSE,158,4.0,9.0,32,0.00,,,0.00,meteohub,2013-10-05 16:19:00,
2013-10-05 12:24:00,71.2,39.9,30.19,SSE,158,7.0,9.0,32,0.00,,,0.00,meteohub,2013-10-05 16:24:00,
2013-10-05 12:29:00,71.6,40.3,30.19,SSE,158,6.0,10.0,32,0.00,,,0.00,meteohub,2013-10-05 16:29:00,
2013-10-05 12:34:00,72.1,40.6,30.19,SSE,158,8.0,10.0,32,0.00,,,0.00,meteohub,2013-10-05 16:34:00,
2013-10-05 12:39:00,72.1,40.6,30.19,South,180,7.0,11.0,32,0.00,,,0.00,meteohub,2013-10-05 16:39:00,
2013-10-05 12:44:00,72.1,40.6,30.19,SE,135,8.0,11.0,32,0.00,,,0.00,meteohub,2013-10-05 16:44:00,
2013-10-05 12:49:00,72.5,41.0,30.18,SE,135,6.0,11.0,32,0.00,,,0.00,meteohub,2013-10-05 16:49:00,
2013-10-05 12:54:00,72.5,41.0,30.18,South,180,5.0,10.0,32,0.00,,,0.00,meteohub,2013-10-05 16:54:00,
2013-10-05 12:59:00,72.9,41.4,30.18,SSE,158,6.0,10.0,32,0.00,,,0.00,meteohub,2013-10-05 16:59:00,
2013-10-05 13:04:00,73.2,41.5,30.18,ESE,112,10.0,11.0,32,0.00,,,0.00,meteohub,2013-10-05 17:04:00,
2013-10-05 13:09:00,73.4,41.0,30.18,SE,135,7.0,11.0,31,0.00,,,0.00,meteohub,2013-10-05 17:09:00,
2013-10-05 13:14:00,73.4,41.0,30.18,SSE,158,6.0,11.0,31,0.00,,,0.00,meteohub,2013-10-05 17:14:00,
2013-10-05 13:19:00,73.4,41.0,30.18,SSE,158,10.0,11.0,31,0.00,,,0.00,meteohub,2013-10-05 17:19:00,
2013-10-05 13:24:00,73.8,41.2,30.17,SSE,158,8.0,11.0,31,0.00,,,0.00,meteohub,2013-10-05 17:24:00,
2013-10-05 13:29:00,73.9,41.4,30.17,South,180,9.0,11.0,31,0.00,,,0.00,meteohub,2013-10-05 17:29:00,
2013-10-05 13:34:00,74.3,41.7,30.17,SSE,158,8.0,11.0,31,0.00,,,0.00,meteohub,2013-10-05 17:34:00,
2013-10-05 13:39:00,74.5,41.9,30.17,South,180,11.0,11.0,31,0.00,,,0.00,meteohub,2013-10-05 17:39:00,
2013-10-05 13:44:00,74.5,41.9,30.17,SSE,158,8.0,13.0,31,0.00,,,0.00,meteohub,2013-10-05 17:44:00,
2013-10-05 13:49:00,74.7,42.1,30.17,SSE,158,7.0,13.0,31,0.00,,,0.00,meteohub,2013-10-05 17:49:00,
2013-10-05 13:54:00,75.7,42.1,30.16,SE,135,9.0,12.0,30,0.00,,,0.00,meteohub,2013-10-05 17:54:00,
2013-10-05 13:59:00,76.6,40.1,30.15,SSE,158,7.0,12.0,27,0.00,,,0.00,meteohub,2013-10-05 17:59:00,
2013-10-05 14:04:00,77.5,41.0,30.15,SE,135,8.0,12.0,27,0.00,,,0.00,meteohub,2013-10-05 18:04:00,
2013-10-05 14:09:00,77.9,39.2,30.14,SSW,202,4.0,11.0,25,0.00,,,0.00,meteohub,2013-10-05 18:09:00,
2013-10-05 14:14:00,78.4,39.7,30.14,SE,135,9.0,12.0,25,0.00,,,0.00,meteohub,2013-10-05 18:14:00,
2013-10-05 14:19:00,79.2,39.4,30.10,SSE,158,11.0,13.0,24,0.00,,,0.00,meteohub,2013-10-05 18:19:00,
2013-10-05 14:24:00,78.8,37.9,30.10,SSE,158,8.0,13.0,23,0.00,,,0.00,meteohub,2013-10-05 18:24:00,
2013-10-05 14:29:00,78.1,38.3,30.11,SSE,158,6.0,13.0,24,0.00,,,0.00,meteohub,2013-10-05 18:29:00,
2013-10-05 14:34:00,78.4,38.7,30.11,SSE,158,11.0,13.0,24,0.00,,,0.00,meteohub,2013-10-05 18:34:00,
2013-10-05 14:39:00,79.0,38.1,30.10,South,180,10.0,13.0,23,0.00,,,0.00,meteohub,2013-10-05 18:39:00,
2013-10-05 14:44:00,79.0,36.9,30.10,SE,135,9.0,13.0,22,0.00,,,0.00,meteohub,2013-10-05 18:44:00,
2013-10-05 14:49:00,79.3,37.2,30.10,SE,135,9.0,13.0,22,0.00,,,0.00,meteohub,2013-10-05 18:49:00,
2013-10-05 14:54:00,79.5,37.4,30.10,SSW,202,8.0,12.0,22,0.00,,,0.00,meteohub,2013-10-05 18:54:00,
2013-10-05 14:59:00,79.2,36.0,30.10,SSE,158,9.0,12.0,21,0.00,,,0.00,meteohub,2013-10-05 18:59:00,
2013-10-05 15:04:00,79.2,36.0,30.10,SSE,158,8.0,12.0,21,0.00,,,0.00,meteohub,2013-10-05 19:04:00,
2013-10-05 15:09:00,78.4,35.2,30.11,SSW,202,6.0,12.0,21,0.00,,,0.00,meteohub,2013-10-05 19:09:00,
2013-10-05 15:14:00,77.4,35.6,30.12,SSE,158,8.0,12.0,22,0.00,,,0.00,meteohub,2013-10-05 19:14:00,
2013-10-05 15:19:00,76.6,36.1,30.12,South,180,8.0,12.0,23,0.00,,,0.00,meteohub,2013-10-05 19:19:00,
2013-10-05 15:24:00,76.1,35.6,30.12,SSE,158,8.0,12.0,23,0.00,,,0.00,meteohub,2013-10-05 19:24:00,
2013-10-05 15:29:00,75.7,36.5,30.13,SSE,158,8.0,13.0,24,0.00,,,0.00,meteohub,2013-10-05 19:29:00,
2013-10-05 15:34:00,75.0,36.9,30.13,SSE,158,8.0,13.0,25,0.00,,,0.00,meteohub,2013-10-05 19:34:00,
2013-10-05 15:39:00,74.1,36.1,30.14,SSE,158,8.0,13.0,25,0.00,,,0.00,meteohub,2013-10-05 19:39:00,
2013-10-05 15:44:00,73.6,36.7,30.14,ESE,112,8.0,11.0,26,0.00,,,0.00,meteohub,2013-10-05 19:44:00,
2013-10-05 15:49:00,72.9,37.9,30.15,SSE,158,8.0,11.0,28,0.00,,,0.00,meteohub,2013-10-05 19:49:00,
2013-10-05 15:54:00,72.5,38.5,30.15,South,180,9.0,11.0,29,0.00,,,0.00,meteohub,2013-10-05 19:54:00,
2013-10-05 15:59:00,72.1,39.0,30.15,SSE,158,6.0,11.0,30,0.00,,,0.00,meteohub,2013-10-05 19:59:00,
2013-10-05 16:04:00,72.0,37.9,30.15,SSE,158,6.0,11.0,29,0.00,,,0.00,meteohub,2013-10-05 20:04:00,
2013-10-05 16:09:00,72.0,39.7,30.15,SSE,158,4.0,11.0,31,0.00,,,0.00,meteohub,2013-10-05 20:09:00,
2013-10-05 16:14:00,71.6,39.4,30.16,SSE,158,6.0,10.0,31,0.00,,,0.00,meteohub,2013-10-05 20:14:00,
2013-10-05 16:20:00,71.4,39.2,30.16,SSE,158,5.0,10.0,31,0.00,,,0.00,meteohub,2013-10-05 20:20:00,
2013-10-05 16:25:00,71.1,39.7,30.16,SSE,158,8.0,10.0,32,0.00,,,0.00,meteohub,2013-10-05 20:25:00,
2013-10-05 16:30:00,70.9,39.6,30.16,SSE,158,8.0,11.0,32,0.00,,,0.00,meteohub,2013-10-05 20:30:00,
2013-10-05 16:35:00,70.9,39.6,30.16,SSE,158,6.0,11.0,32,0.00,,,0.00,meteohub,2013-10-05 20:35:00,
2013-10-05 16:40:00,70.7,39.4,30.16,SSE,158,5.0,11.0,32,0.00,,,0.00,meteohub,2013-10-05 20:40:00,
2013-10-05 16:45:00,70.3,39.2,30.17,South,180,8.0,11.0,32,0.00,,,0.00,meteohub,2013-10-05 20:45:00,
2013-10-05 16:50:00,70.2,39.0,30.17,SSE,158,5.0,10.0,32,0.00,,,0.00,meteohub,2013-10-05 20:50:00,
2013-10-05 16:55:00,70.0,38.8,30.17,SE,135,6.0,10.0,32,0.00,,,0.00,meteohub,2013-10-05 20:55:00,
2013-10-05 17:00:00,69.8,38.7,30.17,SSE,158,6.0,9.0,32,0.00,,,0.00,meteohub,2013-10-05 21:00:00,
2013-10-05 17:05:00,69.6,39.2,30.17,SSE,158,6.0,9.0,33,0.00,,,0.00,meteohub,2013-10-05 21:05:00,
2013-10-05 17:10:00,69.4,39.2,30.17,SSE,158,7.0,9.0,33,0.00,,,0.00,meteohub,2013-10-05 21:10:00,
2013-10-05 17:15:00,69.3,39.0,30.17,SSE,158,5.0,10.0,33,0.00,,,0.00,meteohub,2013-10-05 21:15:00,
2013-10-05 17:20:00,69.1,38.8,30.17,SSE,158,7.0,10.0,33,0.00,,,0.00,meteohub,2013-10-05 21:20:00,
2013-10-05 17:25:00,68.9,38.7,30.18,SSE,158,8.0,8.0,33,0.00,,,0.00,meteohub,2013-10-05 21:25:00,
2013-10-05 17:30:00,68.7,38.5,30.18,SSE,158,5.0,10.0,33,0.00,,,0.00,meteohub,2013-10-05 21:30:00,
2013-10-05 17:35:00,68.5,38.3,30.14,SSE,158,5.0,10.0,33,0.00,,,0.00,meteohub,2013-10-05 21:35:00,
2013-10-05 17:40:00,68.4,39.0,30.15,SSE,158,7.0,10.0,34,0.00,,,0.00,meteohub,2013-10-05 21:40:00,
2013-10-05 17:45:00,68.2,38.8,30.15,SSE,158,5.0,9.0,34,0.00,,,0.00,meteohub,2013-10-05 21:45:00,
2013-10-05 17:50:00,68.2,38.8,30.15,SSE,158,7.0,9.0,34,0.00,,,0.00,meteohub,2013-10-05 21:50:00,
2013-10-05 17:55:00,68.0,38.7,30.15,SSE,158,4.0,9.0,34,0.00,,,0.00,meteohub,2013-10-05 21:55:00,
2013-10-05 18:00:00,67.8,39.2,30.15,SSE,158,4.0,9.0,35,0.00,,,0.00,meteohub,2013-10-05 22:00:00,
2013-10-05 18:05:00,67.5,39.6,30.15,SE,135,5.0,9.0,36,0.00,,,0.00,meteohub,2013-10-05 22:05:00,
2013-10-05 18:10:00,67.3,39.4,30.15,SSE,158,6.0,7.0,36,0.00,,,0.00,meteohub,2013-10-05 22:10:00,
2013-10-05 18:15:00,67.3,40.1,30.15,SSE,158,6.0,8.0,37,0.00,,,0.00,meteohub,2013-10-05 22:15:00,
2013-10-05 18:20:00,67.1,39.9,30.16,ESE,112,6.0,8.0,37,0.00,,,0.00,meteohub,2013-10-05 22:20:00,
2013-10-05 18:25:00,66.9,40.5,30.16,SSE,158,4.0,8.0,38,0.00,,,0.00,meteohub,2013-10-05 22:25:00,
2013-10-05 18:30:00,66.9,40.5,30.16,SSE,158,5.0,10.0,38,0.00,,,0.00,meteohub,2013-10-05 22:30:00,
2013-10-05 18:35:00,66.7,41.0,30.16,SE,135,4.0,10.0,39,0.00,,,0.00,meteohub,2013-10-05 22:35:00,
2013-10-05 18:40:00,66.7,41.0,30.16,SSE,158,6.0,10.0,39,0.00,,,0.00,meteohub,2013-10-05 22:40:00,
2013-10-05 18:45:00,66.6,41.5,30.16,SSE,158,5.0,9.0,40,0.00,,,0.00,meteohub,2013-10-05 22:45:00,
2013-10-05 18:50:00,66.6,42.1,30.16,SSE,158,5.0,9.0,41,0.00,,,0.00,meteohub,2013-10-05 22:50:00,
2013-10-05 18:56:00,66.4,42.1,30.16,SSE,158,6.0,9.0,41,0.00,,,0.00,meteohub,2013-10-05 22:56:00,
2013-10-05 19:01:00,66.4,42.1,30.16,ESE,112,5.0,9.0,41,0.00,,,0.00,meteohub,2013-10-05 23:01:00,
2013-10-05 19:06:00,66.2,42.4,30.16,SSE,158,5.0,9.0,42,0.00,,,0.00,meteohub,2013-10-05 23:06:00,
2013-10-05 19:11:00,66.2,42.4,30.16,SSE,158,6.0,8.0,42,0.00,,,0.00,meteohub,2013-10-05 23:11:00,
2013-10-05 19:16:00,66.0,43.0,30.17,SSE,158,5.0,7.0,43,0.00,,,0.00,meteohub,2013-10-05 23:16:00,
2013-10-05 19:21:00,65.8,42.8,30.17,SSE,158,4.0,7.0,43,0.00,,,0.00,meteohub,2013-10-05 23:21:00,
2013-10-05 19:26:00,65.7,42.6,30.17,SSE,158,6.0,7.0,43,0.00,,,0.00,meteohub,2013-10-05 23:26:00,
2013-10-05 19:31:00,65.5,42.4,30.17,SSE,158,4.0,6.0,43,0.00,,,0.00,meteohub,2013-10-05 23:31:00,
2013-10-05 19:36:00,65.5,42.4,30.17,SSE,158,6.0,6.0,43,0.00,,,0.00,meteohub,2013-10-05 23:36:00,
2013-10-05 19:41:00,65.5,42.4,30.17,SSE,158,6.0,7.0,43,0.00,,,0.00,meteohub,2013-10-05 23:41:00,
2013-10-05 19:46:00,65.5,42.4,30.17,ESE,112,6.0,7.0,43,0.00,,,0.00,meteohub,2013-10-05 23:46:00,
2013-10-05 19:51:00,65.5,42.4,30.17,SE,135,5.0,8.0,43,0.00,,,0.00,meteohub,2013-10-05 23:51:00,
2013-10-05 19:56:00,65.3,42.3,30.17,South,180,5.0,8.0,43,0.00,,,0.00,meteohub,2013-10-05 23:56:00,
2013-10-05 20:01:00,65.1,41.5,30.17,SSE,158,6.0,8.0,42,0.00,,,0.00,meteohub,2013-10-06 00:01:00,
2013-10-05 20:06:00,65.1,42.1,30.17,SSE,158,6.0,8.0,43,0.00,,,0.00,meteohub,2013-10-06 00:06:00,
2013-10-05 20:11:00,64.9,41.9,30.17,SSE,158,6.0,8.0,43,0.00,,,0.00,meteohub,2013-10-06 00:11:00,
2013-10-05 20:16:00,65.1,42.1,30.17,SSE,158,7.0,8.0,43,0.00,,,0.00,meteohub,2013-10-06 00:16:00,
2013-10-05 20:21:00,65.1,42.1,30.17,SE,135,6.0,9.0,43,0.00,,,0.00,meteohub,2013-10-06 00:21:00,
2013-10-05 20:26:00,65.1,42.1,30.17,SSE,158,6.0,9.0,43,0.00,,,0.00,meteohub,2013-10-06 00:26:00,
2013-10-05 20:31:00,64.9,41.9,30.17,ESE,112,7.0,9.0,43,0.00,,,0.00,meteohub,2013-10-06 00:31:00,
2013-10-05 20:36:00,64.9,41.9,30.17,ESE,112,6.0,8.0,43,0.00,,,0.00,meteohub,2013-10-06 00:36:00,
2013-10-05 20:41:00,64.8,41.7,30.17,SE,135,5.0,8.0,43,0.00,,,0.00,meteohub,2013-10-06 00:41:00,
2013-10-05 20:46:00,64.8,42.4,30.21,SSE,158,6.0,8.0,44,0.00,,,0.00,meteohub,2013-10-06 00:46:00,
2013-10-05 20:51:00,64.8,42.4,30.21,SSE,158,6.0,8.0,44,0.00,,,0.00,meteohub,2013-10-06 00:51:00,
2013-10-05 20:56:00,64.8,43.0,30.21,SSE,158,6.0,9.0,45,0.00,,,0.00,meteohub,2013-10-06 00:56:00,
2013-10-05 21:01:00,64.8,43.0,30.17,SSE,158,6.0,10.0,45,0.00,,,0.00,meteohub,2013-10-06 01:01:00,
2013-10-05 21:06:00,64.8,43.0,30.17,SE,135,6.0,10.0,45,0.00,,,0.00,meteohub,2013-10-06 01:06:00,
2013-10-05 21:11:00,64.6,43.3,30.17,SSE,158,6.0,10.0,46,0.00,,,0.00,meteohub,2013-10-06 01:11:00,
2013-10-05 21:17:00,64.8,43.5,30.17,SSE,158,6.0,8.0,46,0.00,,,0.00,meteohub,2013-10-06 01:17:00,
2013-10-05 21:22:00,64.6,43.3,30.17,SSE,158,5.0,9.0,46,0.00,,,0.00,meteohub,2013-10-06 01:22:00,
2013-10-05 21:27:00,64.6,43.3,30.17,SSE,158,7.0,9.0,46,0.00,,,0.00,meteohub,2013-10-06 01:27:00,
2013-10-05 21:32:00,64.6,43.3,30.21,SSE,158,5.0,9.0,46,0.00,,,0.00,meteohub,2013-10-06 01:32:00,
2013-10-05 21:37:00,64.4,43.2,30.21,SSE,158,5.0,9.0,46,0.00,,,0.00,meteohub,2013-10-06 01:37:00,
2013-10-05 21:42:00,64.4,43.2,30.21,SSE,158,6.0,9.0,46,0.00,,,0.00,meteohub,2013-10-06 01:42:00,
2013-10-05 21:47:00,64.4,43.2,30.21,SSE,158,5.0,10.0,46,0.00,,,0.00,meteohub,2013-10-06 01:47:00,
2013-10-05 21:52:00,64.4,43.2,30.21,SE,135,6.0,10.0,46,0.00,,,0.00,meteohub,2013-10-06 01:52:00,
2013-10-05 21:57:00,64.4,43.2,30.21,SSE,158,6.0,10.0,46,0.00,,,0.00,meteohub,2013-10-06 01:57:00,
2013-10-05 22:02:00,64.2,43.5,30.21,SSE,158,6.0,9.0,47,0.00,,,0.00,meteohub,2013-10-06 02:02:00,
2013-10-05 22:07:00,64.2,43.5,30.21,ESE,112,6.0,8.0,47,0.00,,,0.00,meteohub,2013-10-06 02:07:00,
2013-10-05 22:12:00,64.2,43.5,30.21,ESE,112,6.0,9.0,47,0.00,,,0.00,meteohub,2013-10-06 02:12:00,
2013-10-05 22:17:00,64.0,43.3,30.21,SSE,158,9.0,9.0,47,0.00,,,0.00,meteohub,2013-10-06 02:17:00,
2013-10-05 22:22:00,64.0,43.3,30.21,SSE,158,6.0,9.0,47,0.00,,,0.00,meteohub,2013-10-06 02:22:00,
2013-10-05 22:27:00,64.0,44.1,30.21,SSE,158,6.0,9.0,48,0.00,,,0.00,meteohub,2013-10-06 02:27:00,
2013-10-05 22:32:00,63.9,43.9,30.22,SSE,158,5.0,11.0,48,0.00,,,0.00,meteohub,2013-10-06 02:32:00,
2013-10-05 22:37:00,63.9,43.9,30.22,South,180,7.0,11.0,48,0.00,,,0.00,meteohub,2013-10-06 02:37:00,
2013-10-05 22:42:00,63.9,44.4,30.22,SSE,158,6.0,8.0,49,0.00,,,0.00,meteohub,2013-10-06 02:42:00,
2013-10-05 22:47:00,63.9,44.4,30.18,SSE,158,7.0,9.0,49,0.00,,,0.00,meteohub,2013-10-06 02:47:00,
2013-10-05 22:52:00,63.9,44.4,30.18,ESE,112,6.0,9.0,49,0.00,,,0.00,meteohub,2013-10-06 02:52:00,
2013-10-05 22:57:00,63.9,45.0,30.18,SSE,158,6.0,9.0,50,0.00,,,0.00,meteohub,2013-10-06 02:57:00,
2013-10-05 23:02:00,63.7,44.8,30.18,ESE,112,6.0,9.0,50,0.00,,,0.00,meteohub,2013-10-06 03:02:00,
2013-10-05 23:07:00,63.7,44.8,30.18,SSE,158,8.0,10.0,50,0.00,,,0.00,meteohub,2013-10-06 03:07:00,
2013-10-05 23:12:00,63.7,44.8,30.18,SSW,202,8.0,10.0,50,0.00,,,0.00,meteohub,2013-10-06 03:12:00,
2013-10-05 23:17:00,63.7,44.8,30.18,SSE,158,4.0,11.0,50,0.00,,,0.00,meteohub,2013-10-06 03:17:00,
2013-10-05 23:22:00,63.7,44.8,30.18,SSE,158,6.0,11.0,50,0.00,,,0.00,meteohub,2013-10-06 03:22:00,
2013-10-05 23:27:00,63.5,44.6,30.18,SSE,158,9.0,10.0,50,0.00,,,0.00,meteohub,2013-10-06 03:27:00,
2013-10-05 23:32:00,63.5,44.6,30.18,ESE,112,6.0,10.0,50,0.00,,,0.00,meteohub,2013-10-06 03:32:00,
2013-10-05 23:37:00,63.5,44.1,30.18,SSE,158,6.0,10.0,49,0.00,,,0.00,meteohub,2013-10-06 03:37:00,
2013-10-05 23:42:00,63.7,44.2,30.18,SSE,158,8.0,10.0,49,0.00,,,0.00,meteohub,2013-10-06 03:42:00,
2013-10-05 23:47:00,63.5,44.1,30.18,SSE,158,6.0,11.0,49,0.00,,,0.00,meteohub,2013-10-06 03:47:00,
2013-10-05 23:52:00,63.5,43.5,30.18,SSE,158,8.0,11.0,48,0.00,,,0.00,meteohub,2013-10-06 03:52:00,
2013-10-05 23:57:00,63.5,43.5,30.18,SE,135,6.0,11.0,48,0.00,,,0.00,meteohub,2013-10-06 03:57:00,